Powrót do katalogu

TANSEI 3 DEB

AktywnyUNKNOWN
NORAD 12857·DEBRIS·🇯🇵 Japan

Wystrzelony Feb 19, 1977 z Uchinoura Space Center

Loading…

Następne Przeloty (najbliższe 24 godziny)

TLE

ŚwieżeSource: Space-Track

Epoka: Sep 14, 2026, 06:45 UTC

1 12857U 77012H   26257.28143281  .00000099  00000-0  38918-3 0  9991
2 12857  66.2919 210.7170 1695892 160.4216 207.0823 10.78649634781305

Śledź TANSEI 3 DEB w czasie rzeczywistym z AllMySat

Download on the App Store